Date String (YYYY-MM-DD hh:mm:ss) UTC,Instrument flags,Ambient pressure (hPa),Sample flow (lpm),Bypass flow (lpm),Sample temperature (°C),Ambient temperature (°C),ASC tube jacket temperature (°C),LED temperature (°C),Box temperature (°C),Sample RH (%),Span deviation,Mass concentration (μg/m³),Mass concentration (μg/m³),Mass concentration (μg/m³)
DateTimeUTC,F1_M11,P_M11,Q1_M11,Q2_M11,T1_M11,T2_M11,T3_M11,T4_M11,T5_M11,U1_M11,ZSPAN_M11,X0_M11,X2_M11,X1_M11
2022-02-13 01:00:00,,0831.2,5.00,0.00,24.7,23.8,00.0,33.7,26.5,08.3,0000.0,0014.77,0005.78,0004.66
2022-02-13 01:01:00,,0831.2,5.00,0.00,24.7,23.7,00.0,33.6,26.5,08.3,0000.0,0013.76,0005.75,0004.69
2022-02-13 01:02:00,,0831.3,4.99,0.00,24.7,23.8,00.0,33.6,26.5,08.3,0000.0,0013.22,0005.83,0004.74
2022-02-13 01:03:00,,0831.2,5.01,0.00,24.6,23.7,00.0,33.6,26.5,08.3,0000.0,0013.12,0005.88,0004.77
2022-02-13 01:04:00,,0831.2,4.98,0.00,24.6,23.7,00.0,33.6,26.5,08.3,0000.0,0013.33,0005.95,0004.81
2022-02-13 01:05:00,,0831.2,4.98,0.00,24.6,23.7,00.0,33.6,26.4,08.3,0000.0,0013.65,0006.00,0004.85
2022-02-13 01:06:00,,0831.3,5.01,0.00,24.6,23.7,00.0,33.6,26.4,08.3,0000.0,0013.68,0006.02,0004.91
2022-02-13 01:07:00,,0831.3,4.98,0.00,24.6,23.7,00.0,33.6,26.4,08.3,0000.0,0013.72,0006.07,0004.96
2022-02-13 01:08:00,,0831.4,4.99,0.00,24.6,23.7,00.0,33.6,26.3,08.3,0000.0,0013.73,0006.11,0005.01
2022-02-13 01:09:00,,0831.4,5.02,0.00,24.6,23.7,00.0,33.6,26.3,08.3,0000.0,0013.76,0006.15,0005.04
2022-02-13 01:10:00,,0831.3,4.99,0.00,24.6,23.7,00.0,33.6,26.3,08.3,0000.0,0015.11,0006.18,0005.07
2022-02-13 01:11:00,,0831.3,4.99,0.00,24.5,23.6,00.0,33.5,26.3,08.3,0000.0,0015.26,0006.19,0005.09
2022-02-13 01:12:00,,0831.4,5.02,0.00,24.5,23.6,00.0,33.5,26.3,08.3,0000.0,0015.39,0006.27,0005.13
2022-02-13 01:13:00,,0831.4,4.99,0.00,24.5,23.6,00.0,33.5,26.3,08.3,0000.0,0015.47,0006.27,0005.13
2022-02-13 01:14:00,,0831.3,5.00,0.00,24.5,23.6,00.0,33.5,26.3,08.4,0000.0,0015.30,0006.28,0005.15
2022-02-13 01:15:00,,0831.3,5.01,0.00,24.5,23.6,00.0,33.5,26.3,08.4,0000.0,0014.97,0006.31,0005.19
2022-02-13 01:16:00,,0831.4,4.99,0.00,24.5,23.5,00.0,33.5,26.3,08.4,0000.0,0014.22,0006.28,0005.20
2022-02-13 01:17:00,,0831.4,5.00,0.00,24.5,23.5,00.0,33.5,26.3,08.3,0000.0,0013.99,0006.26,0005.22
2022-02-13 01:18:00,,0831.4,5.01,0.00,24.4,23.5,00.0,33.5,26.2,08.3,0000.0,0014.71,0006.28,0005.24
2022-02-13 01:19:00,,0831.5,4.99,0.00,24.4,23.5,00.0,33.5,26.2,08.3,0000.0,0015.17,0006.26,0005.25
2022-02-13 01:20:00,,0831.5,4.99,0.00,24.4,23.5,00.0,33.4,26.2,08.6,0000.0,0015.46,0006.23,0005.20
2022-02-13 01:21:00,,0831.5,5.01,0.00,24.4,23.5,00.0,33.4,26.2,08.6,0000.0,0014.83,0006.14,0005.08
2022-02-13 01:22:00,,0831.5,4.99,0.00,24.4,23.5,00.0,33.4,26.2,08.6,0000.0,0015.41,0006.05,0004.94
2022-02-13 01:23:00,,0831.4,5.02,0.00,24.4,23.5,00.0,33.4,26.2,08.6,0000.0,0015.97,0006.02,0004.82
2022-02-13 01:24:00,,0831.4,4.98,0.00,24.4,23.5,00.0,33.4,26.1,08.5,0000.0,0016.48,0005.97,0004.73
2022-02-13 01:25:00,,0831.6,5.00,0.00,24.4,23.5,00.0,33.4,26.1,08.5,0000.0,0018.02,0006.02,0004.67
2022-02-13 01:26:00,,0831.6,4.99,0.00,24.3,23.4,00.0,33.4,26.1,08.5,0000.0,0018.51,0005.95,0004.60
2022-02-13 01:27:00,,0831.6,5.01,0.00,24.3,23.4,00.0,33.4,26.1,08.6,0000.0,0019.65,0005.95,0004.51
2022-02-13 01:28:00,,0831.6,5.01,0.00,24.3,23.4,00.0,33.4,26.1,08.7,0000.0,0020.49,0005.95,0004.41
2022-02-13 01:29:00,,0831.6,4.98,0.00,24.3,23.4,00.0,33.3,26.1,08.7,0000.0,0019.79,0005.85,0004.27
2022-02-13 01:30:00,,0831.6,5.01,0.00,24.3,23.4,00.0,33.3,26.0,08.7,0000.0,0019.07,0005.78,0004.16
2022-02-13 01:31:00,,0831.6,5.00,0.00,24.3,23.4,00.0,33.3,26.0,08.6,0000.0,0019.14,0005.83,0004.14
2022-02-13 01:32:00,,0831.7,5.02,0.00,24.2,23.4,00.0,33.3,26.0,08.6,0000.0,0019.25,0005.88,0004.20
2022-02-13 01:33:00,,0831.6,5.00,0.00,24.2,23.4,00.0,33.3,26.0,08.7,0000.0,0018.32,0005.96,0004.29
2022-02-13 01:34:00,,0831.7,4.99,0.00,24.2,23.4,00.0,33.3,26.0,08.9,0000.0,0017.97,0005.96,0004.32
2022-02-13 01:35:00,,0831.6,5.01,0.00,24.2,23.4,00.0,33.3,26.0,08.9,0000.0,0017.71,0005.95,0004.35
2022-02-13 01:36:00,,0831.7,4.99,0.00,24.2,23.4,00.0,33.3,25.9,08.9,0000.0,0016.28,0005.85,0004.35
2022-02-13 01:37:00,,0831.6,5.01,0.00,24.2,23.3,00.0,33.2,26.0,08.9,0000.0,0015.47,0005.84,0004.36
2022-02-13 01:38:00,,0831.7,4.98,0.00,24.2,23.3,00.0,33.2,25.9,08.8,0000.0,0014.71,0005.86,0004.40
2022-02-13 01:39:00,,0831.7,5.02,0.00,24.1,23.3,00.0,33.2,25.9,08.8,0000.0,0013.31,0005.83,0004.46
2022-02-13 01:40:00,,0831.7,4.98,0.00,24.1,23.3,00.0,33.2,25.8,08.8,0000.0,0013.73,0005.85,0004.55
2022-02-13 01:41:00,,0831.7,4.99,0.00,24.1,23.2,00.0,33.2,25.8,08.8,0000.0,0014.48,0005.95,0004.65
2022-02-13 01:42:00,,0831.7,5.03,0.00,24.1,23.2,00.0,33.2,25.7,08.8,0000.0,0014.91,0005.98,0004.72
2022-02-13 01:43:00,,0831.7,4.99,0.00,24.0,23.2,00.0,33.1,25.7,08.7,0000.0,0014.87,0006.02,0004.79
2022-02-13 01:44:00,,0831.7,5.02,0.00,24.0,23.2,00.0,33.1,25.7,08.7,0000.0,0014.70,0006.08,0004.90
2022-02-13 01:45:00,,0831.7,4.99,0.00,24.0,23.2,00.0,33.1,25.7,08.8,0000.0,0014.39,0006.08,0005.00
2022-02-13 01:46:00,,0831.7,5.01,0.00,24.0,23.2,00.0,33.1,25.7,08.8,0000.0,0014.06,0006.13,0005.09
2022-02-13 01:47:00,,0831.8,5.00,0.00,24.0,23.2,00.0,33.1,25.6,08.8,0000.0,0014.10,0006.19,0005.16
2022-02-13 01:48:00,,0831.9,5.01,0.00,24.0,23.2,00.0,33.1,25.6,08.8,0000.0,0014.15,0006.24,0005.22
2022-02-13 01:49:00,,0832.0,5.00,0.00,24.0,23.1,00.0,33.1,25.6,08.9,0000.0,0014.20,0006.25,0005.28
2022-02-13 01:50:00,,0832.0,4.99,0.00,23.9,23.1,00.0,33.0,25.6,08.9,0000.0,0014.55,0006.30,0005.30
2022-02-13 01:51:00,,0832.0,5.01,0.00,23.9,23.0,00.0,33.0,25.5,08.9,0000.0,0014.99,0006.30,0005.33
2022-02-13 01:52:00,,0832.0,5.00,0.00,23.9,23.0,00.0,33.0,25.5,08.9,0000.0,0014.40,0006.35,0005.38
2022-02-13 01:53:00,,0832.0,5.01,0.00,23.9,23.0,00.0,33.0,25.5,09.0,0000.5,0013.68,0006.37,0005.43
2022-02-13 01:54:00,,0832.0,5.00,0.00,23.9,23.0,00.0,33.0,25.5,09.0,0000.8,0013.35,0006.35,0005.45
2022-02-13 01:55:00,,0832.0,5.00,0.00,23.9,23.0,00.0,33.0,25.5,08.9,0001.1,0013.17,0006.34,0005.46
2022-02-13 01:56:00,,0832.0,5.01,0.00,23.8,23.0,00.0,32.9,25.5,09.0,0001.8,0013.70,0006.43,0005.49
2022-02-13 01:57:00,,0832.0,5.00,0.00,23.8,23.0,00.0,32.9,25.5,09.0,0001.3,0013.55,0006.43,0005.51
2022-02-13 01:58:00,,0831.8,5.00,0.00,23.8,22.9,00.0,32.9,25.5,09.1,0000.0,0013.71,0006.40,0005.51
2022-02-13 01:59:00,,0831.8,5.00,0.00,23.8,22.9,00.0,32.9,25.5,09.1,0000.0,0013.63,0006.28,0005.46
